[[{"header":{"parameterUnit":"m.s-1","parameterCategory":1,"la1":30.2991,"la2":30.254,"lo1":-89.0895,"lo2":-89.0444,"dy":0.0017,"dx":0.0017,"nx":28,"ny":28,"refTime":"2023-07-26T21:00:00:Z","depth":0,"parameterNumber":2,"parameterNumberName":"U-component_of_WINDS"},"data":[0,0,0,0,0,0,0,0,0,0,0,0,0,0,0,0,0,0,0,0,0,0,0,0,0,0,0,0,0,0,0,0,0,0,0,0,0,0,0,0,0,0,0,0,0,0,0,0,0,0,0,0,0,0,0,0,0,0,0.8835,0.8836,0,0.8991,0.8993,0.8995,0.9047,0.9046,0.9045,0.9045,0.9205,0.921,0.9214,0,0,0,0,0,0,0,0,0,0,0,0,0,0.8579,0.8583,0.8835,0.8837,0.8839,0.8991,0.8993,0.8995,0.9047,0.9046,0.9045,0.9044,0.9203,0.9209,0.9215,0,0,0,0,0,0,0,0,0,0,0,0,0,0.8708,0.8584,0.8834,0.8883,0.8889,0.899,0.8993,0.8996,0.9047,0.9046,0.9045,0.9044,0.9201,0.9208,0.9216,0.9281,0,0,0.9238,0.9241,0,0,0,0,0,0,0,0,0.87,0.8717,0.8874,0.888,0.8886,0.8998,0.8961,0.9091,0.9047,0.8987,0.9045,0.9043,0.9137,0.9149,0.9181,0.9288,0.9295,0.9239,0.9243,0.9246,0.9248,0,0,0,0,0,0,0,0.8691,0.8711,0.8897,0.8876,0.8884,0.8896,0.8913,0.8986,0.9066,0.8992,0.8996,0.9014,0.914,0.9174,0.9185,0.9298,0.9238,0.9245,0.925,0.9252,0.9463,0.9464,0,0,0,0,0,0,0.8674,0.8703,0.8892,0.8901,0.8789,0.8901,0.8921,0.8963,0.9065,0.9079,0.9015,0.9016,0.9162,0.9177,0.9191,0.9272,0.9246,0.9253,0.9257,0.9462,0.9463,0.9464,0,0,0,0,0,0,0.8669,0.8691,0.8885,0.8803,0.8829,0.8907,0.8954,0.8967,0.9001,0.9082,0.9096,0.9034,0.9162,0.9181,0.9257,0.9278,0.9256,0.9263,0.946,0.9462,0.9464,0.9436,0,0,0,0,0,0,0.8661,0.8688,0.8715,0.8803,0.8833,0.895,0.8956,0.8971,0.9013,0.9016,0.9104,0.9118,0.9162,0.9246,0.9265,0.9288,0.9269,0.9459,0.9461,0.9463,0.9435,0.9436,0.9437,0,0,0,0,0,0.8652,0.8701,0.8716,0.8738,0.8868,0.8951,0.8968,0.9018,0.9015,0.9041,0.9093,0.9115,0.9273,0.9254,0.9275,0.9301,0.9458,0.946,0.9463,0.9435,0.9436,0.9437,0,0,0,0,0,0,0.8614,0.8714,0.8731,0.8811,0.8872,0.8959,0.8995,0.9018,0.9081,0.9081,0.914,0.916,0.9231,0.9274,0.9251,0.9368,0.9366,0.9373,0.9337,0.9339,0.934,0.9329,0.9275,0,0,0,0,0,0.8614,0.8674,0.8758,0.882,0.885,0.8916,0.8955,0.8987,0.9053,0.9079,0.9137,0.9199,0.9263,0.9304,0.9367,0.9441,0.946,0.9469,0.947,0.9471,0.9476,0.9516,0.9521,0.9473,0.9473,0.9473,0,0,0.8617,0.8679,0.8713,0.8814,0.8865,0.8924,0.8938,0.9001,0.9045,0.9089,0.9164,0.9208,0.9282,0.9357,0.9393,0.9395,0.9493,0.9474,0.9474,0.9479,0.9519,0.9524,0.9528,0.9475,0.9475,0.9474,0,0,0.8651,0.8704,0.8761,0.8811,0.8888,0.8932,0.8945,0.9029,0.906,0.9136,0.9169,0.9222,0.9331,0.9381,0.9421,0.9471,0.9493,0.949,0.9496,0.9534,0.9538,0.9541,0.9558,0.9563,0.9495,0.9495,0.9495,0,0.8644,0.8736,0.8787,0.8848,0.889,0.8931,0.8988,0.9034,0.9128,0.9156,0.9156,0.9291,0.9344,0.943,0.9442,0.9473,0.9489,0.948,0.9533,0.9537,0.9541,0.9557,0.9564,0.9494,0.9494,0.9494,0.9494,0,0.8722,0.8785,0.8821,0.8909,0.8956,0.9014,0.9073,0.9114,0.9142,0.9185,0.9261,0.9325,0.9401,0.9424,0.9452,0.9513,0.9511,0.9522,0.9522,0.9544,0.956,0.9567,0.9492,0.9493,0.9493,0.9493,0,0,0.8738,0.8853,0.8865,0.8904,0.8991,0.904,0.9099,0.9172,0.9205,0.9268,0.9318,0.9407,0.9416,0.9461,0.9495,0.9529,0.9562,0.9535,0.9537,0.9537,0.9631,0.9622,0.9629,0.9577,0.9578,0.9579,0.9624,0,0.8783,0.8891,0.8938,0.9024,0.9081,0.9119,0.9171,0.9228,0.9269,0.9323,0.9369,0.9431,0.9439,0.9466,0.9501,0.955,0.9581,0.9548,0.9623,0.9625,0.9603,0.9637,0.9629,0.9669,0.9631,0.9632,0.9633,0,0.885,0.8912,0.9003,0.908,0.9106,0.9151,0.9221,0.9272,0.9338,0.9365,0.9414,0.9446,0.9507,0.9502,0.9588,0.9564,0.9597,0.9625,0.9628,0.9637,0.963,0.9646,0.9683,0.9688,0.9644,0.9643,0.9642,0,0.8851,0.8956,0.9024,0.9057,0.9149,0.918,0.922,0.9284,0.9324,0.9385,0.9411,0.9478,0.9515,0.9565,0.9613,0.9606,0.9693,0.9693,0.9717,0.9715,0.9734,0.9732,0.9775,0.9756,0.9756,0.9756,0.9756,0,0.8895,0.8949,0.9025,0.9067,0.9128,0.9181,0.9239,0.9282,0.9338,0.9388,0.9425,0.947,0.9532,0.9585,0.9623,0.9687,0.9703,0.9726,0.9736,0.9723,0.972,0.9745,0.9744,0.9757,0.9757,0.9757,0.9756,0,0.8907,0.896,0.9036,0.9117,0.9138,0.9179,0.9247,0.9289,0.933,0.9392,0.941,0.9476,0.954,0.9593,0.9677,0.9703,0.9768,0.978,0.9746,0.9751,0.9771,0.9768,0.9832,0.9843,0.9817,0.9817,0.9817,0,0.8931,0.8974,0.9058,0.9094,0.9133,0.919,0.9231,0.9283,0.9324,0.94,0.9432,0.9498,0.9554,0.9654,0.9709,0.9773,0.9786,0.9803,0.9796,0.978,0.9785,0.9781,0.9785,0.9804,0.9804,0.9804,0.9804,0,0.8969,0.8993,0.905,0.9116,0.9164,0.9218,0.9274,0.9301,0.9363,0.9407,0.9472,0.9515,0.96,0.9665,0.9734,0.9774,0.9799,0.9806,0.9815,0.9802,0.978,0.9791,0.9747,0.9804,0.9804,0.9804,0.9804,0.9804,0.8987,0.9026,0.9091,0.9153,0.92,0.925,0.9292,0.9338,0.9394,0.9467,0.9494,0.9561,0.9623,0.9718,0.9758,0.981,0.9813,0.9826,0.983,0.9832,0.9829,0.9771,0.9823,0.9823,0.9823,0.9823,0.9823,0,0.9026,0.9069,0.9126,0.9201,0.925,0.9268,0.933,0.9369,0.9427,0.9483,0.9536,0.961,0.9673,0.9732,0.9797,0.9827,0.984,0.9842,0.984,0.9849,0.9823,0.9809,0.983,0.983,0.983,0.983,0.983,0.983,0.9052,0.9117,0.9148,0.9236,0.9279,0.9345,0.9378,0.9424,0.9468,0.9549,0.9601,0.9639,0.9695,0.9764,0.9822,0.9837,0.9859,0.9858,0.9877,0.9852,0.9851,0.9849,0.9836,0.9863,0.9863,0.9898,0.9898,0.9898]},{"header":{"parameterUnit":"m.s-1","parameterCategory":1,"la1":30.2991,"la2":30.254,"lo1":-89.0895,"lo2":-89.0444,"dy":0.0017,"dx":0.0017,"nx":28,"ny":28,"refTime":"2023-07-26T21:00:00:Z","depth":0,"parameterNumber":3,"parameterNumberName":"V-component_of_WINDS"},"data":[0,0,0,0,0,0,0,0,0,0,0,0,0,0,0,0,0,0,0,0,0,0,0,0,0,0,0,0,0,0,0,0,0,0,0,0,0,0,0,0,0,0,0,0,0,0,0,0,0,0,0,0,0,0,0,0,0,0,4.127,4.1269,0,4.1222,4.1221,4.1221,4.1204,4.1204,4.1204,4.1205,4.1148,4.1146,4.1144,0,0,0,0,0,0,0,0,0,0,0,0,0,4.1341,4.134,4.127,4.1269,4.1269,4.1222,4.1221,4.122,4.1204,4.1204,4.1205,4.1205,4.1148,4.1146,4.1144,0,0,0,0,0,0,0,0,0,0,0,0,0,4.1303,4.1339,4.127,4.1255,4.1253,4.1222,4.1221,4.122,4.1204,4.1204,4.1205,4.1205,4.1149,4.1147,4.1144,4.1122,0,0,4.1136,4.1135,0,0,0,0,0,0,0,0,4.1305,4.13,4.1258,4.1256,4.1254,4.1219,4.1225,4.1187,4.1204,4.1222,4.1205,4.1205,4.1171,4.1167,4.1157,4.1119,4.1117,4.1136,4.1134,4.1133,4.1133,0,0,0,0,0,0,0,4.1308,4.1302,4.125,4.1257,4.1255,4.1248,4.1243,4.1218,4.1195,4.1221,4.1219,4.1214,4.117,4.1159,4.1155,4.1116,4.1136,4.1134,4.1132,4.1131,4.1058,4.1058,0,0,0,0,0,0,4.1314,4.1304,4.1252,4.1249,4.1281,4.1247,4.1241,4.123,4.1195,4.1191,4.1214,4.1214,4.1163,4.1158,4.1153,4.1125,4.1133,4.1131,4.1129,4.1059,4.1058,4.1058,0,0,0,0,0,0,4.1315,4.1309,4.1254,4.1276,4.1269,4.1245,4.1233,4.1229,4.1218,4.1191,4.1186,4.1208,4.1163,4.1157,4.113,4.1123,4.113,4.1127,4.1059,4.1058,4.1058,4.1069,0,0,0,0,0,0,4.1317,4.131,4.1303,4.1277,4.1268,4.1234,4.1232,4.1228,4.1215,4.1214,4.1183,4.1179,4.1163,4.1134,4.1128,4.1119,4.1125,4.106,4.1059,4.1058,4.1069,4.1069,4.1069,0,0,0,0,0,4.132,4.1306,4.1302,4.1296,4.1259,4.1234,4.1228,4.1213,4.1214,4.1206,4.1188,4.118,4.1125,4.1132,4.1124,4.1115,4.106,4.1059,4.1058,4.1069,4.1069,4.1069,0,0,0,0,0,0,4.1329,4.1302,4.1298,4.1275,4.1257,4.1231,4.122,4.1213,4.1192,4.1192,4.1172,4.1165,4.114,4.1125,4.1133,4.1092,4.1092,4.1089,4.1103,4.1102,4.1102,4.1106,4.1123,0,0,0,0,0,4.1329,4.1313,4.129,4.1272,4.1263,4.1243,4.1232,4.1222,4.1201,4.1193,4.1173,4.1151,4.1129,4.1115,4.1093,4.1067,4.106,4.1057,4.1057,4.1057,4.1054,4.104,4.1038,4.1055,4.1055,4.1055,0,0,4.1327,4.1311,4.1301,4.1273,4.1258,4.124,4.1237,4.1218,4.1204,4.1189,4.1164,4.1149,4.1123,4.1097,4.1084,4.1083,4.1049,4.1056,4.1056,4.1053,4.1038,4.1037,4.1036,4.1054,4.1054,4.1054,0,0,4.1315,4.1302,4.1286,4.1272,4.125,4.1237,4.1233,4.1208,4.1199,4.1174,4.1162,4.1144,4.1107,4.1089,4.1075,4.1059,4.1049,4.1052,4.105,4.1035,4.1034,4.1033,4.1026,4.1024,4.105,4.105,4.105,0,4.1316,4.1291,4.1278,4.126,4.1248,4.1237,4.1219,4.1205,4.1176,4.1167,4.1167,4.1121,4.1102,4.1072,4.1069,4.1058,4.1052,4.1055,4.1036,4.1034,4.1033,4.1026,4.1024,4.105,4.105,4.105,4.105,0,4.1292,4.1275,4.1264,4.124,4.1226,4.1208,4.1191,4.1179,4.117,4.1157,4.1131,4.1109,4.1083,4.1075,4.1066,4.1044,4.1044,4.104,4.1039,4.1032,4.1026,4.1023,4.1051,4.1051,4.105,4.105,0,0,4.1283,4.1253,4.125,4.1239,4.1214,4.12,4.1181,4.1159,4.1148,4.1128,4.1111,4.1081,4.1078,4.1062,4.105,4.1038,4.1026,4.1036,4.1035,4.1034,4.1,4.1003,4.1,4.1021,4.102,4.102,4.1002,0,4.1267,4.1237,4.1226,4.12,4.1183,4.1173,4.1157,4.1139,4.1126,4.1109,4.1093,4.1072,4.107,4.1061,4.1048,4.103,4.1019,4.1032,4.1003,4.1002,4.1009,4.0997,4.1,4.0984,4.1,4.0999,4.0999,0,4.1245,4.1229,4.1202,4.1181,4.1174,4.116,4.1138,4.1122,4.1102,4.1093,4.1077,4.1066,4.1045,4.1047,4.1016,4.1025,4.1013,4.1002,4.1001,4.0997,4.0999,4.0992,4.0979,4.0976,4.0995,4.0995,4.0996,0,4.1241,4.1212,4.1193,4.1184,4.1158,4.1149,4.1137,4.1117,4.1105,4.1085,4.1077,4.1054,4.1041,4.1023,4.1006,4.1009,4.0977,4.0977,4.0967,4.0968,4.096,4.0961,4.0944,4.0953,4.0953,4.0954,4.0954,0,4.1225,4.1209,4.1191,4.1179,4.116,4.1146,4.1128,4.1115,4.1098,4.1082,4.1071,4.1055,4.1034,4.1016,4.1002,4.0979,4.0973,4.0964,4.096,4.0965,4.0966,4.0955,4.0956,4.0953,4.0953,4.0953,4.0953,0,4.1216,4.1204,4.1182,4.1161,4.1155,4.1143,4.1124,4.111,4.1098,4.1078,4.1072,4.1052,4.1029,4.1011,4.0981,4.0972,4.0947,4.0943,4.0955,4.0953,4.0944,4.0945,4.092,4.0916,4.0929,4.0929,4.0928,0,4.1207,4.1195,4.1173,4.1163,4.1153,4.1136,4.1124,4.111,4.1097,4.1074,4.1063,4.1041,4.1022,4.0987,4.0968,4.0945,4.094,4.0933,4.0936,4.0941,4.0939,4.094,4.0938,4.0932,4.0932,4.0932,4.0932,0,4.119,4.1185,4.117,4.1152,4.1139,4.1123,4.1108,4.1099,4.1082,4.1068,4.1047,4.1033,4.1004,4.0981,4.0957,4.0942,4.0933,4.0931,4.0928,4.0931,4.0939,4.0934,4.0953,4.0931,4.0931,4.0931,4.0931,4.0931,4.118,4.1169,4.1153,4.1136,4.1124,4.111,4.1097,4.1084,4.1067,4.1044,4.1037,4.1014,4.0994,4.0961,4.0946,4.0927,4.0926,4.0921,4.092,4.0919,4.0919,4.0943,4.0923,4.0923,4.0923,4.0923,4.0923,0,4.1163,4.1153,4.1138,4.1118,4.1104,4.1101,4.1083,4.1071,4.1053,4.1036,4.1019,4.0994,4.0973,4.0953,4.093,4.0919,4.0914,4.0913,4.0913,4.091,4.0922,4.0927,4.0917,4.0917,4.0917,4.0917,4.0917,4.0917,4.1153,4.1134,4.1127,4.1102,4.1091,4.1072,4.1062,4.1049,4.1035,4.1009,4.0993,4.0981,4.0962,4.0938,4.0918,4.0913,4.0904,4.0904,4.0897,4.0908,4.0909,4.091,4.0915,4.0903,4.0903,4.0887,4.0887,4.0887]}]]